Total_Precipitation_Accumulation
0.02 0.06 0.13 0.12 0.11 0.12 0.14 0.11 0.10 0.09 0.10 0.12 0.15 0.17 0.17 0.18 0.16 0.14 0.13 0.17 0.23 0.29 0.35 0.37 0.35 0.33 0.29 0.24 0.13 0.06 0.03 0.02 0.01 0.01 0.02 0.03 0.04 0.05 0.05 0.04 0.04 0.06 0.09
0.01 0.05 0.10 0.10 0.12 0.14 0.15 0.12 0.08 0.06 0.07 0.12 0.15 0.16 0.17 0.17 0.15 0.15 0.18 0.22 0.25 0.28 0.32 0.31 0.30 0.25 0.18 0.12 0.06 0.03 0.01 0.00 0.00 0.00 0.00 0.01 0.02 0.03 0.03 0.03 0.04 0.07 0.09
0.01 0.04 0.08 0.09 0.12 0.14 0.13 0.10 0.05 0.04 0.06 0.11 0.13 0.14 0.16 0.16 0.16 0.16 0.19 0.21 0.23 0.23 0.21 0.19 0.16 0.10 0.06 0.04 0.02 0.02 0.01 0.01 0.01 0.00 0.01 0.03 0.03 0.05 0.05 0.05 0.07 0.10 0.11
0.01 0.03 0.06 0.08 0.11 0.12 0.11 0.07 0.04 0.04 0.07 0.10 0.12 0.15 0.16 0.16 0.15 0.16 0.14 0.15 0.14 0.12 0.10 0.08 0.05 0.03 0.02 0.02 0.01 0.01 0.01 0.00 0.00 0.01 0.02 0.03 0.04 0.07 0.09 0.09 0.10 0.11 0.11
0.02 0.03 0.06 0.08 0.11 0.12 0.09 0.06 0.05 0.05 0.07 0.10 0.12 0.15 0.18 0.17 0.17 0.15 0.11 0.08 0.06 0.05 0.04 0.03 0.02 0.01 0.01 0.01 0.01 0.01 0.00 0.00 0.00 0.01 0.02 0.04 0.05 0.10 0.11 0.11 0.11 0.12 0.12
0.04 0.05 0.08 0.09 0.11 0.10 0.08 0.06 0.05 0.05 0.08 0.11 0.12 0.14 0.17 0.19 0.21 0.16 0.07 0.03 0.02 0.02 0.01 0.01 0.01 0.01 0.00 0.00 0.00 0.00 0.00 0.00 0.00 0.01 0.02 0.03 0.05 0.13 0.14 0.13 0.13 0.15 0.16
0.06 0.08 0.11 0.11 0.11 0.09 0.08 0.06 0.05 0.06 0.08 0.10 0.11 0.13 0.14 0.17 0.20 0.17 0.06 0.02 0.01 0.01 0.01 0.01 0.01 0.00 0.00 0.00 0.00 0.00 0.00 0.00 0.00 0.01 0.02 0.03 0.07 0.16 0.17 0.15 0.15 0.14 0.14
0.09 0.12 0.16 0.16 0.12 0.09 0.08 0.07 0.06 0.06 0.07 0.09 0.10 0.11 0.12 0.13 0.16 0.16 0.07 0.02 0.01 0.01 0.01 0.01 0.01 0.01 0.01 0.00 0.00 0.00 0.00 0.00 0.00 0.01 0.02 0.03 0.07 0.11 0.10 0.09 0.09 0.10 0.10
0.17 0.17 0.19 0.19 0.15 0.11 0.08 0.07 0.07 0.06 0.06 0.08 0.09 0.10 0.09 0.08 0.10 0.11 0.05 0.02 0.01 0.01 0.01 0.02 0.02 0.02 0.01 0.01 0.00 0.00 0.00 0.00 0.00 0.01 0.01 0.02 0.04 0.06 0.06 0.07 0.10 0.11 0.12
0.31 0.27 0.21 0.18 0.16 0.12 0.09 0.07 0.07 0.06 0.05 0.07 0.07 0.06 0.05 0.05 0.07 0.07 0.03 0.02 0.01 0.01 0.02 0.02 0.02 0.02 0.01 0.01 0.00 0.00 0.00 0.00 0.00 0.00 0.01 0.01 0.03 0.04 0.05 0.07 0.09 0.11 0.12
0.46 0.40 0.28 0.20 0.18 0.13 0.09 0.06 0.06 0.05 0.05 0.04 0.04 0.03 0.03 0.05 0.05 0.04 0.02 0.01 0.01 0.02 0.01 0.02 0.02 0.01 0.01 0.00 0.00 0.00 0.00 0.00 0.00 0.00 0.01 0.01 0.02 0.03 0.04 0.06 0.07 0.08 0.09
0.50 0.43 0.34 0.26 0.21 0.17 0.11 0.07 0.07 0.05 0.04 0.04 0.02 0.02 0.04 0.04 0.04 0.03 0.01 0.01 0.01 0.01 0.01 0.01 0.01 0.00 0.00 0.00 0.00 0.00 0.00 0.00 0.00 0.00 0.00 0.01 0.01 0.03 0.04 0.05 0.05 0.05 0.06
0.59 0.48 0.39 0.33 0.27 0.22 0.14 0.09 0.07 0.04 0.04 0.04 0.03 0.03 0.03 0.03 0.03 0.03 0.01 0.01 0.01 0.00 0.00 0.01 0.00 0.00 0.00 0.00 0.00 0.00 0.00 0.00 0.00 0.00 0.00 0.00 0.01 0.02 0.04 0.04 0.04 0.05 0.06
0.76 0.60 0.49 0.43 0.35 0.27 0.21 0.15 0.10 0.05 0.04 0.04 0.04 0.03 0.03 0.03 0.02 0.02 0.01 0.01 0.00 0.00 0.01 0.00 0.00 0.00 0.00 0.00 0.00 0.00 0.00 0.00 0.00 0.00 0.00 0.00 0.00 0.01 0.03 0.04 0.04 0.05 0.07
0.80 0.72 0.62 0.56 0.47 0.36 0.28 0.21 0.15 0.11 0.06 0.04 0.04 0.03 0.03 0.02 0.02 0.02 0.01 0.01 0.01 0.00 0.00 0.00 0.00 0.00 0.01 0.00 0.00 0.00 0.00 0.00 0.00 0.01 0.00 0.00 0.00 0.01 0.02 0.03 0.04 0.07 0.11
0.81 0.79 0.71 0.65 0.57 0.44 0.31 0.23 0.17 0.14 0.10 0.05 0.04 0.04 0.03 0.02 0.03 0.03 0.02 0.01 0.01 0.01 0.01 0.01 0.01 0.01 0.01 0.00 0.00 0.00 0.00 0.01 0.01 0.01 0.00 0.00 0.00 0.00 0.01 0.02 0.05 0.10 0.15
0.92 0.95 0.87 0.80 0.74 0.57 0.40 0.32 0.23 0.17 0.13 0.09 0.06 0.06 0.05 0.03 0.03 0.03 0.03 0.02 0.02 0.02 0.02 0.02 0.02 0.01 0.01 0.01 0.01 0.01 0.01 0.02 0.02 0.01 0.01 0.01 0.00 0.00 0.01 0.03 0.06 0.10 0.14
1.03 1.05 0.98 0.90 0.92 0.83 0.64 0.47 0.34 0.25 0.20 0.15 0.13 0.11 0.09 0.06 0.06 0.07 0.06 0.05 0.04 0.03 0.03 0.04 0.04 0.03 0.03 0.03 0.02 0.02 0.03 0.03 0.02 0.02 0.01 0.01 0.01 0.02 0.01 0.02 0.04 0.07 0.11
1.07 1.06 1.04 0.98 0.99 1.06 0.95 0.73 0.57 0.46 0.36 0.29 0.24 0.19 0.16 0.13 0.13 0.14 0.12 0.10 0.09 0.08 0.08 0.08 0.07 0.06 0.06 0.06 0.05 0.05 0.05 0.04 0.03 0.02 0.02 0.01 0.01 0.01 0.01 0.01 0.02 0.03 0.06
1.11 1.16 1.12 1.17 1.15 1.21 1.27 1.09 0.88 0.71 0.58 0.53 0.42 0.37 0.34 0.26 0.21 0.18 0.15 0.15 0.15 0.15 0.15 0.15 0.13 0.11 0.10 0.11 0.11 0.07 0.06 0.05 0.03 0.02 0.02 0.02 0.01 0.01 0.02 0.02 0.02 0.02 0.03
0.96 1.11 1.05 1.09 1.23 1.25 1.23 1.11 0.93 0.76 0.69 0.65 0.61 0.57 0.50 0.43 0.36 0.28 0.25 0.24 0.22 0.20 0.19 0.18 0.18 0.16 0.15 0.16 0.15 0.11 0.07 0.05 0.04 0.03 0.03 0.02 0.02 0.02 0.03 0.03 0.03 0.03 0.04
0.76 0.85 0.91 0.91 1.03 1.10 1.07 1.05 1.09 1.07 0.96 0.86 0.75 0.64 0.56 0.54 0.51 0.46 0.40 0.35 0.31 0.29 0.26 0.25 0.27 0.27 0.25 0.26 0.26 0.25 0.16 0.07 0.04 0.03 0.03 0.03 0.03 0.03 0.04 0.05 0.05 0.06 0.06
0.58 0.65 0.70 0.76 0.82 0.90 1.03 1.10 1.13 1.15 1.02 0.83 0.66 0.58 0.61 0.67 0.66 0.59 0.54 0.55 0.52 0.49 0.43 0.43 0.45 0.42 0.38 0.37 0.37 0.40 0.30 0.16 0.09 0.06 0.05 0.06 0.06 0.06 0.05 0.06 0.06 0.07 0.07
0.40 0.51 0.58 0.66 0.74 0.78 0.93 0.94 0.86 0.78 0.75 0.68 0.67 0.69 0.74 0.74 0.74 0.72 0.70 0.68 0.66 0.64 0.59 0.61 0.68 0.65 0.58 0.48 0.42 0.39 0.39 0.33 0.30 0.19 0.08 0.07 0.07 0.06 0.07 0.07 0.07 0.08 0.10
0.26 0.35 0.44 0.56 0.61 0.66 0.74 0.79 0.84 0.81 0.78 0.81 0.79 0.74 0.71 0.69 0.70 0.74 0.76 0.72 0.66 0.64 0.64 0.67 0.68 0.71 0.67 0.61 0.55 0.52 0.50 0.44 0.39 0.37 0.22 0.11 0.10 0.10 0.10 0.11 0.11 0.13 0.15
0.17 0.21 0.30 0.40 0.51 0.60 0.67 0.73 0.77 0.77 0.74 0.74 0.74 0.72 0.72 0.69 0.65 0.64 0.68 0.67 0.67 0.68 0.70 0.73 0.76 0.77 0.77 0.75 0.70 0.63 0.60 0.55 0.47 0.49 0.45 0.30 0.25 0.21 0.21 0.23 0.25 0.27 0.28